Location: Bratsk-Energetik
(56.3300°N, 101.7600°E)
Time: 07:31:35
(UTC+08:00)

ISS - Pass Details

Date: 20 July 2018
Orbit: 402 x 408 km, 51.6° (Epoch: 22 July)

Event Time Altitude Azimuth Distance (km) Brightness Sun altitude
Rises 02:02:38 0° 260° (W) 2,327 -0.2 -12.4°
Reaches altitude 10° 02:04:48 10° 252° (WSW) 1,468 -1.3 -12.3°
Maximum altitude 02:07:51 35° 184° (S) 672 -3.3 -12.2°
Drops below altitude 10° 02:10:54 10° 116° (ESE) 1,470 -1.1 -12.2°
Sets 02:13:04 0° 108° (ESE) 2,331 0.0 -12.1°
